Iridium Next SV167

operational
NORAD ID: 43931 Int'l Des: 2019-002 Owner: IRIDS Country: US Constellation: Iridium NEXT
LEOCIRCULARPOLAR

关于 Iridium Next SV167

正在加载描述...

实时位置

正在加载3D地球...

即将过境

高度历史

Altitude vs Time

uPlot chart will show altitude changes over time

两行轨道根数

1 43931U 19002K 25303.89563448 .00000160 00000-0 49979-4 0 9991
2 43931 86.3930 89.4515 0001646 89.2023 270.9362 14.34218178356095
Epoch: Oct 30, 2025 • Age: 13 hours

当前状态

高度 786.2 km
速度 7.46 km/s
星下点 -21.15°S, 78.4°E
发射日期 Jan 11, 2019
运行时间 6.8 years
类型 communications

技术详情

分类 Payload
质量 860.00 kg
干质量 700.00 kg
总质量 860.00 kg
长度 3.10 m
直径 1.50 m
跨度 9.40 m
形状 Half Hex Prism+2 pan
制造商 NGISGA
平台类型 EliteBus
阶段状态 In Orbit
所有者/国家 IRIDS/US

大型星座

Loading constellations...